Погода в Стецковке

Украина / Сумская область     51°00′40″N   34°46′42″E
темп.,
°C
ветер,
м/с
пор.,
м/с
влажн.,
%
обл.,
%
осадки,
мм/ч
давл.,
гПа
погр.,
м
15 мая, сб
сб1500:00+13ю33910 0.0 100945
03:00+11ю33935 0.0 100943
06:00+11ю36944 0.0 1009134
09:00+16ююз58763 0.0 1010540
12:00+20ююз68615 0.1 10111401
15:00+20ююз610625 1.6 10111873
18:00+18юз48765 1.6 1011663
21:00+14ююз33860 1.8 101232
16 мая, вс
вс1600:00+13ююв228747 0.0 101223
03:00+14ю238741 0.0 101354
06:00+12юз23915 0.0 101455
09:00+18зюз22705 0.0 1014426
12:00+21юз2355100 0.0 10141175
15:00+22ю235084 0.0 10131619
18:00+22вюв125637 0.0 10121166
21:00+16св337250 0.0 101133
17 мая, пн
пн1700:00+15св3980100 0.0 1011144
03:00+14св5129069 1.3 1009277
06:00+15всв5139147 0.0 1007281
09:00+19в51271100 0.0 1006443
12:00+23юв7115296 0.0 10061136
15:00+24юв685490 0.0 10041228
18:00+23юв5106895 0.0 1004991
21:00+20юв5138184 0.0 1004384
18 мая, вт
вт1800:00+18ююв51284100 0.0 1004426
03:00+16ююв51185100 0.0 1004547
06:00+15ююв61087100 0.1 1004721
09:00+15ююв61190100 0.1 1005658
12:00+20ю6870100 0.2 10041223
15:00+20ю687424 2.9 10041153
18:00+18ю6118494 5.0 1003827
21:00+15юз4895100 9.5 1004400
19 мая, ср
ср1900:00+13зюз5995100 2.3 1006467
03:00+10юз499753 2.3 1007355
06:00+9ююз4109730 0.0 1009430
09:00+14юз58780 0.0 1009710
12:00+17ююз7106184 0.2 10101773
15:00+18юз7115618 0.4 10092213
18:00+16юз610733 1.0 10101119
21:00+11з36905 1.4 1012118